Flag for U.S.A. Weather past 2 weeks in Post Falls, Idaho, U.S.A.

Now
66 °F

Clear.


Feels Like: 66 °F
Forecast: 58 / 83 °F
Wind: 8 mph from Northeast

Location: Coeur d'Alene Weather Reporting System

Current Time: Aug 29, 2015 at 2:24:37 AM

Latest Report: Aug 29, 2015 at 1:55 AM


Visibility: 10 mi

Pressure: 29.80 "Hg (27.57 "Hg at 664m altitude)

Humidity: 49%

Dew point: 46 °F

Location of Post FallsLocation

Historic Weather in Post Falls — Graph

°F

Post Falls temperature yesterday

Maximum temperature yesterday: 79 °F (at 1:15 PM)
Minimum temperature yesterday: 55 °F (at 4:55 AM)
Average temperature yesterday: 69 °F

Past Weeks' High & Low Weather Summary

 TemperatureHumidityPressure
High93 °F (Aug 26, 2:55 PM)100% (Aug 19, 6:35 AM)30.20 "Hg (Aug 19, 6:35 AM)
Low46 °F (Aug 16, 5:15 AM)10% (Aug 19, 5:55 AM)29.67 "Hg (Aug 21, 12:15 AM)
Average68 °F39%29.98 "Hg
* Reported Aug 14 12:15 AM — Aug 29 12:35 AM, Post Falls, Weather by CustomWeather, © 2015

Note: Actual official high and low records may vary slightly from our data, if they occured in-between our weather recording intervals... More about our weather records

Advertising

Post Falls weather history for previous 24 hours

 ConditionsComfort  
Time TempWeatherWind HumidityBarometerVisibility
12:35 AM
Sat, Aug 29
64 °FClear.6 mph52%29.84 "Hg10 mi
12:15 AM66 °FClear.8 mph49%29.84 "Hg10 mi
11:55 PM
Fri, Aug 28
66 °FClear.12 mph49%29.84 "Hg10 mi
10:55 PM64 °FClear.3 mph46%29.88 "Hg10 mi
10:35 PM64 °FClear.6 mph52%29.88 "Hg10 mi
10:15 PM66 °FClear.5 mph49%29.89 "Hg10 mi
9:55 PM66 °FClear.No wind49%29.90 "Hg10 mi
8:55 PM70 °FClear.No wind43%29.91 "Hg10 mi
8:15 PM73 °FSunny.3 mph38%29.91 "Hg10 mi
7:55 PM73 °FSunny.No wind38%29.91 "Hg10 mi
7:35 PM73 °FSunny.3 mph38%29.91 "Hg10 mi
7:15 PM75 °FSunny.3 mph36%29.91 "Hg10 mi
6:55 PM75 °FSunny.No wind36%29.92 "Hg10 mi
6:35 PM77 °FSunny.No wind34%29.92 "Hg10 mi
6:15 PM79 °FSunny.6 mph30%29.92 "Hg10 mi
5:55 PM79 °FSunny.6 mph32%29.93 "Hg10 mi
5:35 PM79 °FSunny.8 mph32%29.93 "Hg10 mi
5:15 PM79 °FSunny.8 mph32%29.93 "Hg10 mi
4:55 PM79 °FSunny.8 mph32%29.94 "Hg10 mi
4:35 PM79 °FSunny.10 mph32%29.94 "Hg10 mi
4:15 PM79 °FSunny.10 mph32%29.93 "Hg10 mi
3:55 PM79 °FSunny.6 mph32%29.94 "Hg10 mi
3:35 PM79 °FPassing clouds.6 mph32%29.95 "Hg10 mi
2:55 PM77 °FSunny.7 mph34%29.98 "Hg10 mi
2:35 PM79 °FSunny.12 mph30%29.99 "Hg10 mi
2:15 PM79 °FSunny.7 mph32%29.99 "Hg10 mi
1:55 PM79 °FSunny.9 mph30%29.99 "Hg10 mi
1:35 PM79 °FSunny.6 mph30%29.99 "Hg10 mi
1:15 PM79 °FSunny.9 mph32%30.00 "Hg10 mi
12:55 PM77 °FSunny.6 mph34%30.00 "Hg10 mi
12:35 PM75 °FSunny.6 mph36%30.00 "Hg10 mi
12:15 PM75 °FSunny.6 mph36%29.99 "Hg10 mi
11:55 AM75 °FSunny.9 mph34%30.00 "Hg10 mi
11:35 AM75 °FSunny.13 mph36%29.99 "Hg10 mi
11:15 AM73 °FSunny.13 mph38%29.99 "Hg10 mi
10:55 AM73 °FSunny.10 mph41%29.99 "Hg10 mi
10:35 AM72 °FSunny.7 mph44%29.99 "Hg9 mi
10:15 AM70 °FSunny.7 mph46%29.98 "Hg10 mi
9:55 AM68 °FSunny.6 mph49%29.97 "Hg10 mi
9:35 AM68 °FSunny.No wind49%29.97 "Hg10 mi
9:15 AM66 °FSunny.No wind52%29.97 "Hg10 mi
8:55 AM66 °FSunny.5 mph52%29.96 "Hg10 mi
8:35 AM66 °FSunny.3 mph52%29.96 "Hg10 mi
8:15 AM66 °FSunny.5 mph52%29.96 "Hg10 mi
7:55 AM66 °FSunny.No wind52%29.96 "Hg10 mi
7:35 AM64 °FSunny.No wind56%29.97 "Hg10 mi
7:15 AM63 °FSunny.3 mph59%29.97 "Hg10 mi
6:55 AM63 °FClear.5 mph59%29.97 "Hg10 mi
6:35 AM61 °FClear.No wind63%29.97 "Hg10 mi
6:15 AM63 °FClear.5 mph59%29.95 "Hg10 mi
5:55 AM59 °FClear.6 mph63%29.95 "Hg10 mi
5:35 AM57 °FClear.5 mph63%29.96 "Hg10 mi
5:15 AM57 °FClear.3 mph67%29.96 "Hg10 mi
4:55 AM55 °FClear.5 mph59%29.96 "Hg10 mi
4:35 AM57 °FClear.3 mph59%29.96 "Hg10 mi
4:15 AM57 °FClear.3 mph55%29.98 "Hg10 mi
3:55 AM59 °FClear.6 mph59%29.98 "Hg10 mi
3:35 AM63 °FClear.3 mph52%29.98 "Hg10 mi
3:15 AM63 °FClear.3 mph56%29.98 "Hg10 mi
2:55 AM64 °FClear.5 mph56%29.99 "Hg10 mi
2:35 AM64 °FClear.7 mph52%29.99 "Hg10 mi
2:15 AM64 °FClear.10 mph52%29.98 "Hg10 mi
Weather by CustomWeather, © 2015

See weather overviewHow to use our weather pages